This is the latest recevied weather packets stored in our database for station/object K1LVA. If no packets are shown the sender has not sent any weather packets the latest 10 day(s).
| Time | Temp. | Humidity | Pressure | Rain* | Wind** | Luminosity | Snow |
|---|---|---|---|---|---|---|---|
| 1778110347 | 27.78° C | 56% | 1012.1 hPa | 0 mm | - | 21 W/m² | - |
| 1778110044 | 28.33° C | 56% | 1012.1 hPa | 0 mm | - | 29 W/m² | - |
| 1778109739 | 28.89° C | 56% | 1012.3 hPa | 0 mm | - | 42 W/m² | - |
| 1778109436 | 28.89° C | 55% | 1012 hPa | 0 mm | - | 69 W/m² | - |
| 1778109135 | 28.89° C | 53% | 1012.2 hPa | 0 mm | - | 104 W/m² | - |
| 1778108831 | 28.89° C | 54% | 1011.8 hPa | 0 mm | - | 87 W/m² | - |
| 1778108528 | 28.89° C | 54% | 1012 hPa | 0 mm | - | 67 W/m² | - |
| 1778108224 | 28.89° C | 53% | 1011.8 hPa | 0 mm | - | 78 W/m² | - |
| 1778107921 | 28.89° C | 53% | 1012 hPa | 0 mm | - | 84 W/m² | - |
| 1778107618 | 28.89° C | 52% | 1011.9 hPa | 0 mm | - | 92 W/m² | - |
| 1778107315 | 28.89° C | 52% | 1012 hPa | 0 mm | - | 103 W/m² | - |
| 1778107011 | 28.89° C | 51% | 1012 hPa | 0 mm | - | 108 W/m² | - |
| 1778106707 | 29.44° C | 51% | 1011.8 hPa | 0 mm | - | 111 W/m² | - |
| 1778106404 | 29.44° C | 53% | 1012.1 hPa | 0 mm | - | 115 W/m² | - |
| 1778106100 | 29.44° C | 52% | 1012.4 hPa | 0 mm | - | 137 W/m² | - |
| 1778105798 | 29.44° C | 51% | 1012.3 hPa | 0 mm | - | 150 W/m² | - |
| 1778105496 | 30° C | 50% | 1012.4 hPa | 0 mm | - | 151 W/m² | - |
| 1778105192 | 29.44° C | 49% | 1012.3 hPa | 0 mm | - | 202 W/m² | - |
| 1778104887 | 29.44° C | 50% | 1012.4 hPa | 0 mm | - | 189 W/m² | - |
| 1778104584 | 30° C | 48% | 1012.3 hPa | 0 mm | - | 181 W/m² | - |
| 1778104280 | 30° C | 48% | 1012.3 hPa | 0 mm | - | 121 W/m² | - |
| 1778103977 | 30.56° C | 48% | 1012.3 hPa | 0 mm | - | 289 W/m² | - |
| 1778103674 | 30.56° C | 48% | 1012.2 hPa | 0 mm | - | 290 W/m² | - |
| 1778103372 | 30.56° C | 49% | 1012.3 hPa | 0 mm | - | 319 W/m² | - |
| 1778103069 | 30.56° C | 48% | 1012.3 hPa | 0 mm | - | 313 W/m² | - |
* Rain latest hour (hover to see other rain measurements)
** Current wind speed in m/s (hover to see current wind gust speed)